Weather History for Beale AFB, CA

Change the Weather History Date:

Saturday, January 25, 2014

  Actual Average Record
Temperature  
Mean Temperature 55 °F -  
Max Temperature 71 °F 53 °F 71 °F (2014)
Min Temperature 39 °F 40 °F 32 °F (2007)
Degree Days  
Heating Degree Days 10    
Growing Degree Days 5 (Base 50)    
Moisture  
Dew Point 31 °F    
Average Humidity 48    
Maximum Humidity 83    
Minimum Humidity 18    
Precipitation  
Precipitation 0.00 in - - ()
Sea Level Pressure  
Sea Level Pressure 30.41 in    
Wind  
Wind Speed 5 mph (North)    
Max Wind Speed 10 mph    
Max Gust Speed -    
Visibility 10 miles    
Events      
Averages and records for this station are not official NWS values.
T = Trace of Precipitation, MM = Missing Value Source: NWS Daily Summary

Daily Weather History Graph

Daily Weather History Graph

Search for Another Location

Airport:

Trip Planner

Search our weather history database for the weather conditions in past years. The results will help you decide how hot, cold, wet, or windy it might be!

Date:

Astronomy

Jan. 25, 2014 Rise Set
Actual Time 7:17 AM PST 5:18 PM PST
Civil Twilight 6:49 AM PST 5:47 PM PST
Nautical Twilight 6:16 AM PST 6:19 PM PST
Astronomical Twilight 5:45 AM PST 6:51 PM PST
Moon 1:55 AM PST (1/25) 12:23 PM PST (1/25)
Length of Visible Light 10h 58m
Length of Day
10h 00m
Waning Crescent, 33% of the Moon is Illuminated
Jan 25
Waning Crescent
Jan 30
New
Feb 6
First Quarter
Feb 14
Full
Feb 22
Last Quarter

Hourly Weather History & Observations

Time (PST) Temp. Windchill Dew Point Humidity Pressure Visibility Wind Dir Wind Speed Gust Speed Precip Events Conditions
12:58 AM 42.4 °F 39.6 °F 28.6 °F 58% 30.48 in 10.0 mi East 4.6 mph - N/A   Clear
1:58 AM 41.4 °F 39.4 °F 29.3 °F 62% 30.49 in 10.0 mi NW 3.5 mph - N/A   Clear
2:58 AM 39.2 °F - 29.3 °F 68% 30.49 in 10.0 mi East 2.3 mph - N/A   Clear
3:58 AM 41.4 °F - 27.9 °F 59% 30.49 in 10.0 mi NE 2.3 mph - N/A   Partly Cloudy
4:58 AM 42.4 °F 40.7 °F 32.4 °F 68% 30.47 in 10.0 mi WNW 3.5 mph - N/A   Overcast
5:58 AM 42.8 °F 37.5 °F 36.1 °F 77% 30.46 in 10.0 mi NNW 9.2 mph - N/A   Overcast
6:58 AM 43.5 °F 38.3 °F 38.7 °F 83% 30.47 in 10.0 mi NW 9.2 mph - N/A   Overcast
7:58 AM 43.3 °F 38.6 °F 37.0 °F 78% 30.47 in 10.0 mi NNW 8.1 mph - N/A   Overcast
8:58 AM 48.2 °F - 35.2 °F 61% 30.47 in 10.0 mi NNW 8.1 mph - N/A   Clear
9:58 AM 55.0 °F - 33.6 °F 44% 30.46 in 10.0 mi NNW 8.1 mph - N/A   Clear
10:58 AM 58.6 °F - 31.1 °F 35% 30.46 in 10.0 mi WNW 9.2 mph - N/A   Clear
11:58 AM 63.9 °F - 32.0 °F 30% 30.43 in 10.0 mi West 8.1 mph - N/A   Clear
12:58 PM 68.2 °F - 29.7 °F 24% 30.40 in 10.0 mi West 3.5 mph - N/A   Clear
1:58 PM 70.2 °F - 27.5 °F 20% 30.38 in 10.0 mi NW 2.3 mph - N/A   Clear
2:58 PM 71.6 °F - 26.4 °F 19% 30.36 in 10.0 mi West 4.6 mph - N/A   Clear
3:58 PM 71.1 °F - 25.9 °F 18% 30.35 in 10.0 mi NW 3.5 mph - N/A   Clear
4:58 PM 68.4 °F - 26.6 °F 21% 30.34 in 10.0 mi ENE 3.5 mph - N/A   Clear
5:58 PM 54.9 °F - 28.4 °F 36% 30.34 in 10.0 mi East 3.5 mph - N/A   Clear
6:58 PM 51.3 °F - 30.6 °F 45% 30.34 in 10.0 mi East 6.9 mph - N/A   Clear
7:58 PM 49.3 °F - 29.5 °F 46% 30.34 in 10.0 mi East 5.8 mph - N/A   Clear
8:58 PM 47.5 °F - 30.2 °F 51% 30.35 in 10.0 mi East 9.2 mph - N/A   Clear
9:58 PM 47.5 °F - 29.5 °F 50% 30.35 in 10.0 mi East 9.2 mph - N/A   Clear
10:58 PM 46.2 °F 41.2 °F 30.2 °F 54% 30.36 in 10.0 mi East 10.4 mph - N/A   Clear
11:58 PM 46.6 °F - 30.4 °F 53% 30.35 in 10.0 mi ENE 8.1 mph - N/A   Clear